date	count	count_smoothed
2004-01-01 00:00:00+00:00	2394	2680.1740263271877
2004-01-02 00:00:00+00:00	2487	2681.8513174661884
2004-01-03 00:00:00+00:00	2539	2684.405769764767
2004-01-04 00:00:00+00:00	2695	2687.6785264694486
2004-01-05 00:00:00+00:00	2834	2691.51073082676
2004-01-06 00:00:00+00:00	2641	2695.7435260832276
2004-01-07 00:00:00+00:00	3849	2700.2180554853776
2004-01-08 00:00:00+00:00	1090	2704.7754622797356
2004-01-09 00:00:00+00:00	5272	2709.2568897128276
2004-01-10 00:00:00+00:00	1001	2713.503481031181
2004-01-11 00:00:00+00:00	1221	2717.3563794813203
2004-01-12 00:00:00+00:00	2881	2720.656728309773
2004-01-13 00:00:00+00:00	4816	2723.2456707630645
2004-01-14 00:00:00+00:00	3550	2724.9643500877214
2004-01-15 00:00:00+00:00	3139	2725.6539095302696
2004-01-16 00:00:00+00:00	3087	2725.1554923372355
2004-01-17 00:00:00+00:00	2487	2723.310241755145
2004-01-18 00:00:00+00:00	2109	2719.959301030524
2004-01-19 00:00:00+00:00	2649	2714.943813409899
2004-01-20 00:00:00+00:00	1715	2708.1049221397966
2004-01-21 00:00:00+00:00	2241	2699.283770466742
2004-01-22 00:00:00+00:00	3225	2688.321501637262
2004-01-23 00:00:00+00:00	1702	2675.059258897883
2004-01-24 00:00:00+00:00	897	2659.3381854951303
2004-01-25 00:00:00+00:00	1806	2640.9994246755305
2004-01-26 00:00:00+00:00	3225	2619.884119685559
2004-01-27 00:00:00+00:00	6178	2558.692745022488
2004-01-28 00:00:00+00:00	3520	2445.113751160795
2004-01-29 00:00:00+00:00	1285	2360.8898049785503
2004-01-30 00:00:00+00:00	3452	2346.3796008969175
2004-01-31 00:00:00+00:00	2248	2325.846519739927
2004-02-01 00:00:00+00:00	1595	2289.323133026752
2004-02-02 00:00:00+00:00	2364	2233.70042356561
2004-02-03 00:00:00+00:00	2494	2065.2263697931608
2004-02-04 00:00:00+00:00	898	2036.2116695734508
2004-02-05 00:00:00+00:00	1882	1915.550454143885
2004-02-06 00:00:00+00:00	2826	1823.0908061337395
2004-02-07 00:00:00+00:00	941	1819.017305035187
2004-02-08 00:00:00+00:00	1547	1879.7700287661876
2004-02-09 00:00:00+00:00	1603	1909.5064214364625
2004-02-10 00:00:00+00:00	1505	1956.0922331196255
2004-02-11 00:00:00+00:00	1176	1999.7034587419491
2004-02-12 00:00:00+00:00	4676	2017.1196629594847
2004-02-13 00:00:00+00:00	2221	1912.2332329157705
2004-02-14 00:00:00+00:00	1659	1863.9898298941864
2004-02-15 00:00:00+00:00	3705	1798.8859770322883
2004-02-16 00:00:00+00:00	400	1794.1928016489273
2004-02-17 00:00:00+00:00	11	1852.0578495548805
2004-02-18 00:00:00+00:00	651	1851.7720446668877
2004-02-19 00:00:00+00:00	481	1807.4269632380908
2004-02-20 00:00:00+00:00	526	1779.2236517248068
2004-02-21 00:00:00+00:00	1622	1805.6989965797295
2004-02-22 00:00:00+00:00	3581	1925.471109198359
2004-02-23 00:00:00+00:00	2857	1972.1298783664029
2004-02-24 00:00:00+00:00	596	1887.3914244942896
2004-02-25 00:00:00+00:00	719	1903.9982785566694
2004-02-26 00:00:00+00:00	887	1870.6777503453854
2004-02-27 00:00:00+00:00	2886	1897.072866882566
2004-02-28 00:00:00+00:00	4281	1935.8569843031182
2004-02-29 00:00:00+00:00	4327	1947.6935830935772
2004-03-01 00:00:00+00:00	3688	1857.1498335182778
2004-03-02 00:00:00+00:00	2927	1763.8419896260057
2004-03-03 00:00:00+00:00	1527	1799.4067136288131
2004-03-04 00:00:00+00:00	1414	1800.734580624668
2004-03-05 00:00:00+00:00	1428	1789.7248182291444
2004-03-06 00:00:00+00:00	432	1833.338308908434
2004-03-07 00:00:00+00:00	335	1869.4471448956583
2004-03-08 00:00:00+00:00	434	1879.0973294978012
2004-03-09 00:00:00+00:00	4320	1980.821830619002
2004-03-10 00:00:00+00:00	3347	2051.9072912183346
2004-03-11 00:00:00+00:00	3240	2065.144442682694
2004-03-12 00:00:00+00:00	1770	2114.7814899544314
2004-03-13 00:00:00+00:00	576	2117.623592833319
2004-03-14 00:00:00+00:00	840	2083.397109787271
2004-03-15 00:00:00+00:00	1183	2040.2872998255511
2004-03-16 00:00:00+00:00	1249	1994.2487938571273
2004-03-17 00:00:00+00:00	705	1958.7453396452545
2004-03-18 00:00:00+00:00	789	1930.192167432974
2004-03-19 00:00:00+00:00	997	1985.5562300391473
2004-03-20 00:00:00+00:00	3398	2015.2821581462385
2004-03-21 00:00:00+00:00	2436	1955.2041042831852
2004-03-22 00:00:00+00:00	3321	1837.9582323495085
2004-03-23 00:00:00+00:00	682	1783.8586377947067
2004-03-24 00:00:00+00:00	844	1781.1285646333668
2004-03-25 00:00:00+00:00	1920	1831.1341819746417
2004-03-26 00:00:00+00:00	3994	1891.608711409056
2004-03-27 00:00:00+00:00	5545	1943.9890371242464
2004-03-28 00:00:00+00:00	2624	1969.5963441980189
2004-03-29 00:00:00+00:00	1957	1845.7819203152603
2004-03-30 00:00:00+00:00	2937	1819.8895558222941
2004-03-31 00:00:00+00:00	1066	1779.930122992559
2004-04-01 00:00:00+00:00	951	1762.323993748409
2004-04-02 00:00:00+00:00	1225	1750.696278511371
2004-04-03 00:00:00+00:00	1696	1639.92421119388
2004-04-04 00:00:00+00:00	414	1717.8626016443984
2004-04-05 00:00:00+00:00	1662	1796.764320822634
2004-04-06 00:00:00+00:00	2694	1875.215044508333
2004-04-07 00:00:00+00:00	1014	1916.552651249142
2004-04-08 00:00:00+00:00	1431	1850.624000543578
2004-04-09 00:00:00+00:00	2036	1800.464314027463
2004-04-10 00:00:00+00:00	1690	1743.4626831864489
2004-04-11 00:00:00+00:00	978	1735.878139935186
2004-04-12 00:00:00+00:00	1531	1674.7343994201133
2004-04-13 00:00:00+00:00	603	1639.330177353929
2004-04-14 00:00:00+00:00	772	1605.465582459368
2004-04-15 00:00:00+00:00	1377	1639.2127568008023
2004-04-16 00:00:00+00:00	3292	1629.2656911821018
2004-04-17 00:00:00+00:00	1165	1654.810731839874
2004-04-18 00:00:00+00:00	1281	1610.8617862238928
2004-04-19 00:00:00+00:00	1083	1563.9429205644224
2004-04-20 00:00:00+00:00	1117	1563.0526172732946
2004-04-21 00:00:00+00:00	1059	1634.0051190287122
2004-04-22 00:00:00+00:00	1425	1732.9544044032375
2004-04-23 00:00:00+00:00	5545	1775.0378717524404
2004-04-24 00:00:00+00:00	2501	1765.6229812679449
2004-04-25 00:00:00+00:00	3122	1734.4642687263254
2004-04-26 00:00:00+00:00	1270	1746.2623162472203
2004-04-27 00:00:00+00:00	502	1747.9572810255843
2004-04-28 00:00:00+00:00	3730	1719.6901402069934
2004-04-29 00:00:00+00:00	1453	1722.0842374685392
2004-04-30 00:00:00+00:00	685	1727.2245577475942
2004-05-01 00:00:00+00:00	669	1769.49337470834
2004-05-02 00:00:00+00:00	366	1828.983057373858
2004-05-03 00:00:00+00:00	2660	1851.7050895829677
2004-05-04 00:00:00+00:00	2330	1847.2759065890152
2004-05-05 00:00:00+00:00	2918	1809.6981132075127
2004-05-06 00:00:00+00:00	1244	1806.6665609639736
2004-05-07 00:00:00+00:00	2345	1752.8221930281213
2004-05-08 00:00:00+00:00	1340	1756.655824593955
2004-05-09 00:00:00+00:00	1190	1715.3302906067763
2004-05-10 00:00:00+00:00	1239	1690.3221137511284
2004-05-11 00:00:00+00:00	1924	1665.342589866103
2004-05-12 00:00:00+00:00	1828	1683.3929873836005
2004-05-13 00:00:00+00:00	1569	1703.7474687988076
2004-05-14 00:00:00+00:00	1585	1702.7105710208284
2004-05-15 00:00:00+00:00	906	1643.1386441368686
2004-05-16 00:00:00+00:00	567	1630.6479648462844
2004-05-17 00:00:00+00:00	1643	1635.4885048358656
2004-05-18 00:00:00+00:00	1066	1636.165960723881
2004-05-19 00:00:00+00:00	2285	1755.0400009059888
2004-05-20 00:00:00+00:00	4508	1775.0159686515774
2004-05-21 00:00:00+00:00	1514	1765.7104351174094
2004-05-22 00:00:00+00:00	1590	1780.2758159867376
2004-05-23 00:00:00+00:00	2871	1752.7756687580356
2004-05-24 00:00:00+00:00	2439	1812.9398627375133
2004-05-25 00:00:00+00:00	924	1837.2704704522964
2004-05-26 00:00:00+00:00	586	1820.217015107895
2004-05-27 00:00:00+00:00	939	1816.2337765294449
2004-05-28 00:00:00+00:00	334	1813.1942965865244
2004-05-29 00:00:00+00:00	1430	1870.9162381933547
2004-05-30 00:00:00+00:00	3308	1917.8460893791112
2004-05-31 00:00:00+00:00	2015	1979.663118077382
2004-06-01 00:00:00+00:00	3123	1928.8232123037528
2004-06-02 00:00:00+00:00	1765	1957.5968425105516
2004-06-03 00:00:00+00:00	2289	1873.1153367006823
2004-06-04 00:00:00+00:00	1738	1809.4547554870658
2004-06-05 00:00:00+00:00	2238	1773.0091281795396
2004-06-06 00:00:00+00:00	2950	1765.870257536943
2004-06-07 00:00:00+00:00	845	1787.3110829237012
2004-06-08 00:00:00+00:00	1444	1796.7097102991795
2004-06-09 00:00:00+00:00	3209	1802.5570454596586
2004-06-10 00:00:00+00:00	1613	1772.2871186209993
2004-06-11 00:00:00+00:00	679	1719.9713017282054
2004-06-12 00:00:00+00:00	856	1740.3751160841362
2004-06-13 00:00:00+00:00	1130	1725.75265577926
2004-06-14 00:00:00+00:00	1827	1737.969512333202
2004-06-15 00:00:00+00:00	3867	1787.3272327798704
2004-06-16 00:00:00+00:00	1473	1717.8670864571916
2004-06-17 00:00:00+00:00	1951	1696.7348750820756
2004-06-18 00:00:00+00:00	2346	1720.2239688327832
2004-06-19 00:00:00+00:00	1476	1776.867584769723
2004-06-20 00:00:00+00:00	1968	1778.5362069355701
2004-06-21 00:00:00+00:00	1260	1764.6640241001724
2004-06-22 00:00:00+00:00	496	1729.0225826179196
2004-06-23 00:00:00+00:00	414	1703.143038347382
2004-06-24 00:00:00+00:00	324	1689.2706290062872
2004-06-25 00:00:00+00:00	313	1714.4451969466704
2004-06-26 00:00:00+00:00	2485	1729.0341570590174
2004-06-27 00:00:00+00:00	913	1692.4661034224687
2004-06-28 00:00:00+00:00	3929	1702.3584905660052
2004-06-29 00:00:00+00:00	3366	1703.1438311173201
2004-06-30 00:00:00+00:00	2632	1669.2793494756077
2004-07-01 00:00:00+00:00	2433	1655.6364810074656
2004-07-02 00:00:00+00:00	1412	1671.4130104871817
2004-07-03 00:00:00+00:00	1479	1712.683209132677
2004-07-04 00:00:00+00:00	1521	1753.313347980668
2004-07-05 00:00:00+00:00	1953	1805.1754513125659
2004-07-06 00:00:00+00:00	2208	1794.4876894153545
2004-07-07 00:00:00+00:00	595	1759.9939069967277
2004-07-08 00:00:00+00:00	908	1781.5736936283606
2004-07-09 00:00:00+00:00	1028	1811.2137534258638
2004-07-10 00:00:00+00:00	2284	1846.8886951006464
2004-07-11 00:00:00+00:00	3820	1892.1821105800445
2004-07-12 00:00:00+00:00	2481	1842.6554621848386
2004-07-13 00:00:00+00:00	2466	1843.9346304559208
2004-07-14 00:00:00+00:00	1075	1925.0705791750295
2004-07-15 00:00:00+00:00	1291	1967.1330947472952
2004-07-16 00:00:00+00:00	1174	1954.0987791342577
2004-07-17 00:00:00+00:00	2028	1948.237015560904
2004-07-18 00:00:00+00:00	785	1928.8869510067807
2004-07-19 00:00:00+00:00	1123	1924.535595370187
2004-07-20 00:00:00+00:00	1711	1874.5035448141164
2004-07-21 00:00:00+00:00	852	1877.3083422047703
2004-07-22 00:00:00+00:00	3981	1921.7463362703202
2004-07-23 00:00:00+00:00	1356	1910.4145054247747
2004-07-24 00:00:00+00:00	2247	1945.8260662755295
2004-07-25 00:00:00+00:00	3096	1953.5343042877157
2004-07-26 00:00:00+00:00	3217	1892.792951142685
2004-07-27 00:00:00+00:00	3377	1892.7623728736417
2004-07-28 00:00:00+00:00	442	1902.342431312111
2004-07-29 00:00:00+00:00	689	1941.2214999206858
2004-07-30 00:00:00+00:00	2099	1974.067657251542
2004-07-31 00:00:00+00:00	2887	2012.1946136944957
2004-08-01 00:00:00+00:00	2840	1992.4470542933773
2004-08-02 00:00:00+00:00	915	1984.8880382341238
2004-08-03 00:00:00+00:00	531	1954.8649573036387
2004-08-04 00:00:00+00:00	719	1927.7118847538645
2004-08-05 00:00:00+00:00	2608	1941.535867177022
2004-08-06 00:00:00+00:00	3885	1962.1020181657193
2004-08-07 00:00:00+00:00	2927	1964.3018414912756
2004-08-08 00:00:00+00:00	665	1987.429001789357
2004-08-09 00:00:00+00:00	938	1991.6353031778367
2004-08-10 00:00:00+00:00	3345	1989.1241024711387
2004-08-11 00:00:00+00:00	2571	1951.0591179867797
2004-08-12 00:00:00+00:00	2172	1885.1047362340798
2004-08-13 00:00:00+00:00	1267	1836.2305827991222
2004-08-14 00:00:00+00:00	2409	1854.1888831003744
2004-08-15 00:00:00+00:00	159	1881.9695802849083
2004-08-16 00:00:00+00:00	497	1872.507395410959
2004-08-17 00:00:00+00:00	497	1941.3889555821959
2004-08-18 00:00:00+00:00	1894	1937.076604226559
2004-08-19 00:00:00+00:00	2705	1884.7823506760833
2004-08-20 00:00:00+00:00	4897	1890.0142019071418
2004-08-21 00:00:00+00:00	3188	1925.6540125483787
2004-08-22 00:00:00+00:00	1977	1927.1565833880354
2004-08-23 00:00:00+00:00	862	1905.5391968107633
2004-08-24 00:00:00+00:00	821	1879.0061836054815
2004-08-25 00:00:00+00:00	836	1905.91247819879
2004-08-26 00:00:00+00:00	3113	1883.7854991052666
2004-08-27 00:00:00+00:00	1028	1861.6085528550684
2004-08-28 00:00:00+00:00	1782	1766.5338739268955
2004-08-29 00:00:00+00:00	1574	1751.1789621508644
2004-08-30 00:00:00+00:00	1294	1723.9517769371569
2004-08-31 00:00:00+00:00	2860	1754.7673559989698
2004-09-01 00:00:00+00:00	2551	1833.3692269360222
2004-09-02 00:00:00+00:00	2020	1864.5540782350317
2004-09-03 00:00:00+00:00	1196	1778.5820516885658
2004-09-04 00:00:00+00:00	1388	1751.4205531268774
2004-09-05 00:00:00+00:00	2345	1798.636798115438
2004-09-06 00:00:00+00:00	4368	1816.719314140716
2004-09-07 00:00:00+00:00	2755	1786.5111327549544
2004-09-08 00:00:00+00:00	562	1761.683933950905
2004-09-09 00:00:00+00:00	416	1763.3663276631069
2004-09-10 00:00:00+00:00	383	1744.6554848354103
2004-09-11 00:00:00+00:00	674	1735.3173571314985
2004-09-12 00:00:00+00:00	422	1699.883417517918
2004-09-13 00:00:00+00:00	2886	1614.6363677546183
2004-09-14 00:00:00+00:00	2060	1625.1222451244341
2004-09-15 00:00:00+00:00	1380	1722.670456861957
2004-09-16 00:00:00+00:00	3065	1716.909692178725
2004-09-17 00:00:00+00:00	973	1721.5424358422285
2004-09-18 00:00:00+00:00	975	1689.9928650705244
2004-09-19 00:00:00+00:00	253	1624.2550227637912
2004-09-20 00:00:00+00:00	2786	1618.9411764705571
2004-09-21 00:00:00+00:00	3185	1683.3902919658105
2004-09-22 00:00:00+00:00	4107	1695.4930576003665
2004-09-23 00:00:00+00:00	930	1705.2427008538937
2004-09-24 00:00:00+00:00	1112	1674.3058279915417
2004-09-25 00:00:00+00:00	816	1616.9153321705733
2004-09-26 00:00:00+00:00	521	1636.2962014994364
2004-09-27 00:00:00+00:00	1322	1668.5324469410084
2004-09-28 00:00:00+00:00	3134	1683.2816824842823
2004-09-29 00:00:00+00:00	1306	1642.7314774966276
2004-09-30 00:00:00+00:00	1150	1601.2417042288307
2004-10-01 00:00:00+00:00	1516	1642.408412421541
2004-10-02 00:00:00+00:00	2978	1729.1562436294942
2004-10-03 00:00:00+00:00	2033	1790.618541756291
2004-10-04 00:00:00+00:00	2378	1723.8367573444143
2004-10-05 00:00:00+00:00	679	1655.4954585607509
2004-10-06 00:00:00+00:00	151	1618.3835194454832
2004-10-07 00:00:00+00:00	505	1605.5676912274037
2004-10-08 00:00:00+00:00	3526	1594.5496160728137
2004-10-09 00:00:00+00:00	1314	1586.1456431628953
2004-10-10 00:00:00+00:00	816	1512.2336179754632
2004-10-11 00:00:00+00:00	3120	1541.2293143672268
2004-10-12 00:00:00+00:00	1891	1633.2565403519582
2004-10-13 00:00:00+00:00	1999	1572.0658225554075
2004-10-14 00:00:00+00:00	3111	1615.5924029989042
2004-10-15 00:00:00+00:00	952	1434.6383383541825
2004-10-16 00:00:00+00:00	729	1544.2701533443271
2004-10-17 00:00:00+00:00	248	1627.6897098461716
2004-10-18 00:00:00+00:00	795	1730.0583478674157
2004-10-19 00:00:00+00:00	1901	1769.0074520373846
2004-10-20 00:00:00+00:00	2577	1801.9262044440072
2004-10-21 00:00:00+00:00	1699	1835.9972592810354
2004-10-22 00:00:00+00:00	1098	1773.0548370291176
2004-10-23 00:00:00+00:00	1181	1800.6722689075284
2004-10-24 00:00:00+00:00	2237	1888.211624272314
2004-10-25 00:00:00+00:00	2530	1870.5496840245173
2004-10-26 00:00:00+00:00	711	1822.4640422206269
2004-10-27 00:00:00+00:00	1408	1767.699585494541
2004-10-28 00:00:00+00:00	956	1854.2944574055682
2004-10-29 00:00:00+00:00	3231	1907.2741171940108
2004-10-30 00:00:00+00:00	3236	1986.30890846901
2004-10-31 00:00:00+00:00	2093	1976.5559582323115
2004-11-01 00:00:00+00:00	1335	1986.2280006341775
2004-11-02 00:00:00+00:00	654	1996.4179030102225
2004-11-03 00:00:00+00:00	3043	2064.744750730441
2004-11-04 00:00:00+00:00	5037	2025.2694964777977
2004-11-05 00:00:00+00:00	1114	1995.6324039049196
2004-11-06 00:00:00+00:00	570	2038.9318897369876
2004-11-07 00:00:00+00:00	3817	2086.0000453010994
2004-11-08 00:00:00+00:00	155	2132.0783483204195
2004-11-09 00:00:00+00:00	7184	2222.4898412194643
2004-11-10 00:00:00+00:00	146	2205.43720129557
2004-11-11 00:00:00+00:00	1450	2151.0810210876393
2004-11-12 00:00:00+00:00	2079	2130.843756370432
2004-11-13 00:00:00+00:00	1166	2052.702077057199
2004-11-14 00:00:00+00:00	1297	2048.908627601945
2004-11-15 00:00:00+00:00	643	2105.6634351853545
2004-11-16 00:00:00+00:00	3471	2064.9712790776293
2004-11-17 00:00:00+00:00	1115	2048.5626401503605
2004-11-18 00:00:00+00:00	804	2051.457835964535
2004-11-19 00:00:00+00:00	2608	2028.769326598525
2004-11-20 00:00:00+00:00	3623	2065.563568823716
2004-11-21 00:00:00+00:00	4547	1997.0511676368278
2004-11-22 00:00:00+00:00	1501	1932.4738046161492
2004-11-23 00:00:00+00:00	1764	1872.3416158916039
2004-11-24 00:00:00+00:00	1211	1921.0801830165663
2004-11-25 00:00:00+00:00	2447	1961.7026886225813
2004-11-26 00:00:00+00:00	930	1903.218011732959
2004-11-27 00:00:00+00:00	746	1878.7837097102629
2004-11-28 00:00:00+00:00	1679	1913.1646016896962
2004-11-29 00:00:00+00:00	3347	1998.1449636457978
2004-11-30 00:00:00+00:00	2549	2060.8048200411845
2004-12-01 00:00:00+00:00	2496	2073.1536161634067
2004-12-02 00:00:00+00:00	1234	2100.960520057039
2004-12-03 00:00:00+00:00	1243	2237.97035040427
2004-12-04 00:00:00+00:00	804	2219.2689755146916
2004-12-05 00:00:00+00:00	2249	2270.4408480372845
2004-12-06 00:00:00+00:00	3250	2277.0025142131885
2004-12-07 00:00:00+00:00	1403	2283.1633559083575
2004-12-08 00:00:00+00:00	3747	2272.985413033094
2004-12-09 00:00:00+00:00	2408	2311.1001155178615
2004-12-10 00:00:00+00:00	1009	2327.8113660558115
2004-12-11 00:00:00+00:00	3507	2358.4092278420353
2004-12-12 00:00:00+00:00	2108	2492.4888672449633
2004-12-13 00:00:00+00:00	1286	2546.468730888533
2004-12-14 00:00:00+00:00	3172	2568.2938231896032
2004-12-15 00:00:00+00:00	1566	2637.8118870189073
2004-12-16 00:00:00+00:00	3300	2697.832272531602
2004-12-17 00:00:00+00:00	3954	2794.202382839875
2004-12-18 00:00:00+00:00	3462	2737.4484359781122
2004-12-19 00:00:00+00:00	2142	2672.964483906719
2004-12-20 00:00:00+00:00	2668	2632.451584407297
2004-12-21 00:00:00+00:00	5333	2620.7182269133573
2004-12-22 00:00:00+00:00	3770	2644.1802305827478
2004-12-23 00:00:00+00:00	847	2530.467485107202
2004-12-24 00:00:00+00:00	1185	2424.13556365938
2004-12-25 00:00:00+00:00	4387	2570.129176198732
2004-12-26 00:00:00+00:00	2572	2641.885591972587
2004-12-27 00:00:00+00:00	1143	2694.769734308766
2004-12-28 00:00:00+00:00	375	2741.5219144260955
2004-12-29 00:00:00+00:00	1712	2737.3429749257666
2004-12-30 00:00:00+00:00	7072	2730.43183311055
2004-12-31 00:00:00+00:00	2300	2774.7621916690678
2005-01-01 00:00:00+00:00	3440	2838.035108382921
2005-01-02 00:00:00+00:00	4870	2811.6545561620333
2005-01-03 00:00:00+00:00	2420	2812.218555346613
2005-01-04 00:00:00+00:00	3117	2788.3418650478525
2005-01-05 00:00:00+00:00	1698	2708.152800742887
2005-01-06 00:00:00+00:00	694	2778.856553942279
2005-01-07 00:00:00+00:00	693	2818.2723277989903
2005-01-08 00:00:00+00:00	873	2762.7645699788814
2005-01-09 00:00:00+00:00	600	2737.4145960270375
2005-01-10 00:00:00+00:00	1863	2724.9294887765905
2005-01-11 00:00:00+00:00	1803	2753.091349747393
2005-01-12 00:00:00+00:00	4236	2726.972955219771
2005-01-13 00:00:00+00:00	5081	2716.626492106224
2005-01-14 00:00:00+00:00	3955	2670.0090149266744
2005-01-15 00:00:00+00:00	4438	2628.0104645631336
2005-01-16 00:00:00+00:00	1686	2661.350993227429
2005-01-17 00:00:00+00:00	6095	2671.057351242332
2005-01-18 00:00:00+00:00	7307	2662.5814627737377
2005-01-19 00:00:00+00:00	635	2676.013545040606
2005-01-20 00:00:00+00:00	2160	2749.857890325889
2005-01-21 00:00:00+00:00	2674	2765.635710888075
2005-01-22 00:00:00+00:00	1337	2697.255226618898
2005-01-23 00:00:00+00:00	2664	2535.8533602119605
2005-01-24 00:00:00+00:00	1914	2485.801014745473
2005-01-25 00:00:00+00:00	1163	2606.3526240684455
2005-01-26 00:00:00+00:00	1244	2632.328886271439
2005-01-27 00:00:00+00:00	2188	2678.3031552243024
2005-01-28 00:00:00+00:00	3652	2773.8226460394944
2005-01-29 00:00:00+00:00	3390	2800.3974948469413
2005-01-30 00:00:00+00:00	3896	2803.212258488247
2005-01-31 00:00:00+00:00	1147	2731.449206097481
2005-02-01 00:00:00+00:00	461	2640.6240458447023
2005-02-02 00:00:00+00:00	2428	2552.6362771523213
2005-02-03 00:00:00+00:00	3233	2467.8505288907536
2005-02-04 00:00:00+00:00	1021	2328.6614192846505
2005-02-05 00:00:00+00:00	1007	2228.905864232443
2005-02-06 00:00:00+00:00	3635	2170.7234818455267
2005-02-07 00:00:00+00:00	2953	2170.4032027905087
2005-02-08 00:00:00+00:00	2967	2161.8194296586144
2005-02-09 00:00:00+00:00	3402	2071.428548777962
2005-02-10 00:00:00+00:00	3987	2064.8820584837313
2005-02-11 00:00:00+00:00	3859	1995.9089447099211
2005-02-12 00:00:00+00:00	1504	2049.567192914863
2005-02-13 00:00:00+00:00	462	2178.0533873926515
2005-02-14 00:00:00+00:00	1313	2180.9962173548247
2005-02-15 00:00:00+00:00	1412	2225.6136718838047
2005-02-16 00:00:00+00:00	2598	2264.429341547897
2005-02-17 00:00:00+00:00	4856	2199.0126843189682
2005-02-18 00:00:00+00:00	2288	2227.38562594845
2005-02-19 00:00:00+00:00	2119	2195.9143808466356
2005-02-20 00:00:00+00:00	744	2112.1512831547307
2005-02-21 00:00:00+00:00	942	2046.10321864591
2005-02-22 00:00:00+00:00	695	2033.5198758748395
2005-02-23 00:00:00+00:00	467	2083.819361706907
2005-02-24 00:00:00+00:00	1808	2115.936646356615
2005-02-25 00:00:00+00:00	2935	2180.5229337017404
2005-02-26 00:00:00+00:00	2409	2147.956012593675
2005-02-27 00:00:00+00:00	1935	2056.814378581582
2005-02-28 00:00:00+00:00	1554	1890.7245690728764
2005-03-01 00:00:00+00:00	2735	1856.9376429816853
2005-03-02 00:00:00+00:00	2441	1803.6970259801692
2005-03-03 00:00:00+00:00	662	1774.565969784106
2005-03-04 00:00:00+00:00	916	1807.1256880110188
2005-03-05 00:00:00+00:00	2331	1832.5432512627342
2005-03-06 00:00:00+00:00	4622	1853.8045482343528
2005-03-07 00:00:00+00:00	2899	1894.2770391174972
2005-03-08 00:00:00+00:00	2475	1965.5633196674517
2005-03-09 00:00:00+00:00	3122	1997.4495685066097
2005-03-10 00:00:00+00:00	2795	1922.050714625436
2005-03-11 00:00:00+00:00	627	1874.1356089605295
2005-03-12 00:00:00+00:00	239	1832.1242157239903
2005-03-13 00:00:00+00:00	666	1838.7343541189707
2005-03-14 00:00:00+00:00	2757	1888.6584973611723
2005-03-15 00:00:00+00:00	807	2002.0643955695102
2005-03-16 00:00:00+00:00	1978	2039.5645201476427
2005-03-17 00:00:00+00:00	2955	2037.3264626604969
2005-03-18 00:00:00+00:00	2350	1998.3441301048333
2005-03-19 00:00:00+00:00	1330	1902.9688554666784
2005-03-20 00:00:00+00:00	580	1870.1452581032058
2005-03-21 00:00:00+00:00	954	1823.239257967303
2005-03-22 00:00:00+00:00	406	1837.395297741703
2005-03-23 00:00:00+00:00	784	1874.9874289338018
2005-03-24 00:00:00+00:00	1713	1899.2877301863775
2005-03-25 00:00:00+00:00	6527	1882.6170015175524
2005-03-26 00:00:00+00:00	3582	1781.0802736188475
2005-03-27 00:00:00+00:00	2196	1814.2145008946627
2005-03-28 00:00:00+00:00	1059	1844.7543998731214
2005-03-29 00:00:00+00:00	1476	1770.0229450270335
2005-03-30 00:00:00+00:00	1128	1743.7503001200148
2005-03-31 00:00:00+00:00	1307	1757.685745996478
2005-04-01 00:00:00+00:00	1177	1871.7500736143154
2005-04-02 00:00:00+00:00	879	1942.700989829857
2005-04-03 00:00:00+00:00	2438	2000.169879272425
2005-04-04 00:00:00+00:00	4158	2032.6376588370806
2005-04-05 00:00:00+00:00	2256	2035.8557385217848
2005-04-06 00:00:00+00:00	2814	1949.384493419972
2005-04-07 00:00:00+00:00	1146	1906.0550182336724
2005-04-08 00:00:00+00:00	662	1852.4641101723353
2005-04-09 00:00:00+00:00	894	1938.7512514439368
2005-04-10 00:00:00+00:00	1060	1944.9521166956977
2005-04-11 00:00:00+00:00	2277	1980.813880269051
2005-04-12 00:00:00+00:00	2140	2023.6403316043009
2005-04-13 00:00:00+00:00	4315	1938.5306575460002
2005-04-14 00:00:00+00:00	1969	1982.4378581620947
2005-04-15 00:00:00+00:00	1950	1985.8001993249745
2005-04-16 00:00:00+00:00	953	1933.7912976510988
2005-04-17 00:00:00+00:00	1190	1840.414188316801
2005-04-18 00:00:00+00:00	1105	1778.9672699268046
2005-04-19 00:00:00+00:00	2001	1794.2502208430199
2005-04-20 00:00:00+00:00	4749	1843.0060930032037
2005-04-21 00:00:00+00:00	1642	1976.0478833042268
2005-04-22 00:00:00+00:00	1485	2067.7910711453997
2005-04-23 00:00:00+00:00	3286	2127.349520940411
2005-04-24 00:00:00+00:00	1772	2147.149357856309
2005-04-25 00:00:00+00:00	1700	2146.2132098121856
2005-04-26 00:00:00+00:00	741	2174.945389476504
2005-04-27 00:00:00+00:00	597	2132.558155337566
2005-04-28 00:00:00+00:00	536	2096.304378355075
2005-04-29 00:00:00+00:00	2122	2131.700763324157